Location: Prague
(50.0830°N, 14.4670°E)
Time: 02:09:46
(UTC+01:00)

AO-7 - Pass Details

Date: 13 December 2021
Orbit: 1440 x 1459 km, 101.9° (Epoch: 28 January)

Event Time Altitude Azimuth Distance (km) Brightness Sun altitude
Rises 06:59:59 0° 19° (NNE) 4,551 ? -8.0°
Reaches altitude 10° 07:03:22 10° 7° (N) 3,572 ? -7.6°
Maximum altitude 07:09:34 24° 318° (NW) 2,623 ? -6.7°
Drops below altitude 10° 07:15:48 10° 269° (W) 3,572 ? -5.8°
Sets 07:19:12 0° 257° (WSW) 4,551 ? -5.3°
